Location: Eaton Estates
(41.3089°N, 82.0057°W)
Time: 12:51:46
(UTC+00:00)

Cosmos 2123 Rocket - Pass Details

Date: 17 October 2021
Orbit: 961 x 992 km, 82.9° (Epoch: 29 November)

Event Time Altitude Azimuth Distance (km) Brightness Sun altitude
Rises 00:58:46 0° 348° (NNW) 3,717 7.3 -25.8°
Reaches altitude 10° 01:01:21 10° 344° (NNW) 2,763 6.7 -26.3°
Maximum altitude 01:07:29 55° 269° (W) 1,179 4.6 -27.4°
Drops below altitude 10° 01:13:35 10° 193° (SSW) 2,734 6.3 -28.5°
Sets 01:16:08 0° 189° (S) 3,675 7.0 -29.0°
